WZZ3KQ LIMJ-LHBP

Flight info

Callsign WZZ3KQ
Flight time 1h 16m
Altitude 38000
Route GEN DCT GOLAS DCT KALIK DCT LURUT DCT CHI/N0443F370 DCT BARPI DCT KOPRY DCT ULZAK
Aircraft A321/M-SDE1E2E3FGIJ1J4RWXY/LB1

Departure

Time 2026-04-14 11:57
Airport Genoa Cristoforo Colombo Airport (LIMJ)

Arrival

Time 2026-04-14 13:13
Airport Budapest Liszt Ferenc International Airport (LHBP)
Time Latitude Longitude Altitude Speed Heading
2026-04-14 11:10 44.41416 8.85038 20 ft 0 kts 15°
2026-04-14 11:51 44.41398 8.85031 21 ft 4 kts 16°
2026-04-14 11:51 44.41372 8.85019 21 ft 4 kts 23°
2026-04-14 11:51 44.41351 8.85001 22 ft 4 kts 60°
2026-04-14 11:51 44.41347 8.84984 23 ft 0 kts 105°
2026-04-14 11:52 44.41343 8.85008 22 ft 0 kts 102°
2026-04-14 11:54 44.41341 8.85025 20 ft 6 kts 102°
2026-04-14 11:54 44.41322 8.85122 20 ft 12 kts 105°
2026-04-14 11:54 44.41292 8.85240 22 ft 13 kts 128°
2026-04-14 11:55 44.41216 8.85275 20 ft 12 kts 195°
2026-04-14 11:55 44.41132 8.85244 20 ft 14 kts 194°
2026-04-14 11:55 44.41046 8.85198 18 ft 10 kts 217°
2026-04-14 11:55 44.41007 8.85170 17 ft 2 kts 234°
2026-04-14 11:56 44.41008 8.85154 18 ft 0 kts 286°
2026-04-14 11:56 44.41009 8.85148 17 ft 4 kts 282°
2026-04-14 11:56 44.41095 8.84707 20 ft 88 kts 285°
2026-04-14 11:56 44.41322 8.83560 33 ft 152 kts 295°
2026-04-14 11:57 44.41606 8.82135 671 ft 150 kts 292°
2026-04-14 11:57 44.41766 8.80692 1394 ft 155 kts 270°
2026-04-14 11:57 44.41372 8.79195 1796 ft 181 kts 236°
2026-04-14 11:57 44.40255 8.78158 2092 ft 208 kts 192°
2026-04-14 11:58 44.38809 8.78320 2573 ft 217 kts 156°
2026-04-14 11:58 44.37555 8.79546 2848 ft 229 kts 121°
2026-04-14 11:58 44.36966 8.81640 3199 ft 242 kts 89°
2026-04-14 11:58 44.37299 8.83957 3799 ft 248 kts 67°
2026-04-14 11:59 44.37854 8.86267 4700 ft 252 kts 70°
2026-04-14 11:59 44.38355 8.88622 5639 ft 254 kts 72°
2026-04-14 11:59 44.38845 8.91011 6537 ft 258 kts 72°
2026-04-14 11:59 44.39345 8.93441 7350 ft 263 kts 72°
2026-04-14 12:00 44.39858 8.95907 8255 ft 265 kts 72°
2026-04-14 12:00 44.40379 8.98403 9112 ft 270 kts 72°
2026-04-14 12:00 44.40910 9.00943 9939 ft 274 kts 72°
2026-04-14 12:00 44.41460 9.03551 10478 ft 289 kts 72°
2026-04-14 12:01 44.42057 9.06355 10752 ft 312 kts 72°
2026-04-14 12:01 44.42526 9.09382 11267 ft 325 kts 84°
2026-04-14 12:01 44.42693 9.12557 12098 ft 328 kts 85°
2026-04-14 12:01 44.42869 9.15748 12921 ft 331 kts 85°
2026-04-14 12:02 44.43058 9.18979 13671 ft 337 kts 84°
2026-04-14 12:02 44.43254 9.22261 14386 ft 339 kts 84°
2026-04-14 12:02 44.43452 9.25553 15108 ft 342 kts 85°
2026-04-14 12:02 44.43654 9.28896 15736 ft 348 kts 85°
2026-04-14 12:03 44.43856 9.32285 16408 ft 351 kts 85°
2026-04-14 12:03 44.44055 9.35709 17125 ft 356 kts 85°
2026-04-14 12:03 44.44253 9.39182 17763 ft 361 kts 85°
2026-04-14 12:03 44.44449 9.42703 18431 ft 365 kts 85°
2026-04-14 12:04 44.44645 9.46253 19016 ft 369 kts 85°
2026-04-14 12:04 44.44842 9.49873 19560 ft 375 kts 86°
2026-04-14 12:04 44.45044 9.53529 20185 ft 379 kts 86°
2026-04-14 12:04 44.45250 9.57229 20762 ft 383 kts 86°
2026-04-14 12:05 44.45451 9.60921 21338 ft 388 kts 86°
2026-04-14 12:05 44.45658 9.64705 21949 ft 392 kts 86°
2026-04-14 12:05 44.45880 9.68529 22523 ft 397 kts 85°
2026-04-14 12:05 44.46113 9.72401 23106 ft 401 kts 85°
2026-04-14 12:06 44.46346 9.76309 23660 ft 405 kts 85°
2026-04-14 12:06 44.46575 9.80252 24144 ft 409 kts 85°
2026-04-14 12:06 44.46802 9.84237 24637 ft 412 kts 86°
2026-04-14 12:06 44.47026 9.88252 25113 ft 415 kts 86°
2026-04-14 12:07 44.47244 9.92296 25572 ft 418 kts 87°
2026-04-14 12:07 44.47458 9.96371 26039 ft 421 kts 86°
2026-04-14 12:07 44.47667 10.00471 26504 ft 424 kts 87°
2026-04-14 12:07 44.47874 10.04600 26955 ft 427 kts 88°
2026-04-14 12:08 44.48085 10.08757 27412 ft 429 kts 88°
2026-04-14 12:08 44.48300 10.12940 27851 ft 432 kts 88°
2026-04-14 12:08 44.48520 10.17152 28296 ft 435 kts 87°
2026-04-14 12:08 44.48738 10.21380 28716 ft 438 kts 88°
2026-04-14 12:09 44.48954 10.25644 29158 ft 440 kts 87°
2026-04-14 12:09 44.49168 10.29934 29601 ft 443 kts 88°
2026-04-14 12:09 44.49381 10.34251 30013 ft 446 kts 88°
2026-04-14 12:09 44.49592 10.38598 30363 ft 448 kts 88°
2026-04-14 12:10 44.49803 10.42969 30713 ft 451 kts 88°
2026-04-14 12:10 44.50015 10.47369 31044 ft 454 kts 88°
2026-04-14 12:10 44.50228 10.51797 31389 ft 457 kts 88°
2026-04-14 12:10 44.50438 10.56184 31805 ft 458 kts 88°
2026-04-14 12:11 44.50653 10.60683 32303 ft 457 kts 88°
2026-04-14 12:11 44.50860 10.65062 32783 ft 456 kts 88°
2026-04-14 12:11 44.51066 10.69500 33254 ft 456 kts 89°
2026-04-14 12:11 44.51268 10.73935 33702 ft 456 kts 89°
2026-04-14 12:12 44.51471 10.78427 34128 ft 456 kts 89°
2026-04-14 12:12 44.51667 10.82795 34492 ft 456 kts 89°
2026-04-14 12:12 44.51864 10.87225 34859 ft 456 kts 89°
2026-04-14 12:12 44.52064 10.91655 35194 ft 456 kts 87°
2026-04-14 12:13 44.52545 10.96050 35530 ft 458 kts 78°
2026-04-14 12:13 44.53512 11.00305 35873 ft 460 kts 69°
2026-04-14 12:13 44.54932 11.04310 36193 ft 461 kts 60°
2026-04-14 12:13 44.56591 11.08153 36514 ft 460 kts 60°
2026-04-14 12:14 44.58247 11.11995 36842 ft 460 kts 60°
2026-04-14 12:14 44.59897 11.15836 37157 ft 459 kts 60°
2026-04-14 12:14 44.61543 11.19676 37475 ft 459 kts 60°
2026-04-14 12:14 44.63185 11.23515 37769 ft 458 kts 60°
2026-04-14 12:15 44.64826 11.27356 37969 ft 459 kts 60°
2026-04-14 12:15 44.66462 11.31192 38005 ft 458 kts 59°
2026-04-14 12:15 44.69726 11.38862 38000 ft 457 kts 60°
2026-04-14 12:16 44.72987 11.46537 37995 ft 458 kts 60°
2026-04-14 12:16 44.76248 11.54243 37991 ft 459 kts 60°
2026-04-14 12:17 44.79506 11.61961 37987 ft 459 kts 60°
2026-04-14 12:17 44.82767 11.69695 37991 ft 459 kts 60°
2026-04-14 12:18 44.86020 11.77424 37996 ft 459 kts 60°
2026-04-14 12:18 44.89267 11.85178 38000 ft 459 kts 60°
2026-04-14 12:19 44.92509 11.92944 37994 ft 460 kts 60°
2026-04-14 12:19 44.95758 12.00744 37991 ft 461 kts 60°
2026-04-14 12:20 44.99009 12.08554 37990 ft 461 kts 60°
2026-04-14 12:20 45.02253 12.16374 37991 ft 462 kts 60°
2026-04-14 12:21 45.05493 12.24224 37997 ft 462 kts 60°
2026-04-14 12:21 45.08743 12.32083 38003 ft 463 kts 60°
2026-04-14 12:22 45.12030 12.39857 37998 ft 464 kts 60°
2026-04-14 12:22 45.15366 12.47681 37993 ft 464 kts 60°
2026-04-14 12:23 45.18687 12.55551 37995 ft 465 kts 60°
2026-04-14 12:23 45.21985 12.63438 37991 ft 466 kts 61°
2026-04-14 12:24 45.25291 12.71360 38003 ft 466 kts 60°
2026-04-14 12:24 45.28591 12.79292 37994 ft 466 kts 60°
2026-04-14 12:25 45.31352 12.85934 37992 ft 466 kts 60°
2026-04-14 12:25 45.34626 12.93815 38005 ft 466 kts 60°
2026-04-14 12:26 45.37913 13.01756 38002 ft 466 kts 60°
2026-04-14 12:26 45.41189 13.09711 38009 ft 466 kts 60°
2026-04-14 12:27 45.44457 13.17660 38016 ft 465 kts 60°
2026-04-14 12:27 45.47714 13.25602 38019 ft 464 kts 60°
2026-04-14 12:28 45.50959 13.33534 38019 ft 463 kts 61°
2026-04-14 12:28 45.54195 13.41482 38017 ft 463 kts 61°
2026-04-14 12:29 45.57412 13.49427 38026 ft 463 kts 62°
2026-04-14 12:29 45.59749 13.57918 38022 ft 459 kts 75°
2026-04-14 12:30 45.61553 13.66678 38015 ft 460 kts 75°
2026-04-14 12:30 45.63358 13.75439 38013 ft 460 kts 75°
2026-04-14 12:31 45.65161 13.84199 37998 ft 460 kts 75°
2026-04-14 12:31 45.66950 13.92984 38001 ft 460 kts 76°
2026-04-14 12:32 45.68733 14.01781 38004 ft 461 kts 75°
2026-04-14 12:32 45.70509 14.10579 38016 ft 461 kts 76°
2026-04-14 12:33 45.72286 14.19417 38012 ft 463 kts 76°
2026-04-14 12:33 45.74068 14.28278 38032 ft 464 kts 76°
2026-04-14 12:34 45.75843 14.37144 38056 ft 464 kts 76°
2026-04-14 12:34 45.77607 14.46027 38076 ft 464 kts 76°
2026-04-14 12:35 45.79360 14.54915 38075 ft 463 kts 76°
2026-04-14 12:35 45.81103 14.63803 38097 ft 463 kts 76°
2026-04-14 12:36 45.82845 14.72708 38082 ft 463 kts 76°
2026-04-14 12:36 45.84578 14.81604 38087 ft 463 kts 76°
2026-04-14 12:37 45.86308 14.90511 38088 ft 464 kts 76°
2026-04-14 12:37 45.88015 14.99367 38104 ft 465 kts 76°
2026-04-14 12:38 45.90598 15.12777 38098 ft 464 kts 76°
2026-04-14 12:39 45.92301 15.21710 38102 ft 464 kts 76°
2026-04-14 12:39 45.93995 15.30636 38103 ft 464 kts 76°
2026-04-14 12:40 45.95689 15.39585 38106 ft 464 kts 76°
2026-04-14 12:40 45.97378 15.48546 38105 ft 464 kts 76°
2026-04-14 12:41 45.99052 15.57501 38111 ft 464 kts 76°
2026-04-14 12:41 46.00724 15.66479 38112 ft 464 kts 76°
2026-04-14 12:42 46.02392 15.75452 38087 ft 464 kts 76°
2026-04-14 12:42 46.04046 15.84423 38080 ft 464 kts 77°
2026-04-14 12:43 46.05693 15.93391 38075 ft 464 kts 77°
2026-04-14 12:43 46.07340 16.02370 38067 ft 464 kts 77°
2026-04-14 12:44 46.08961 16.11300 38077 ft 464 kts 77°
2026-04-14 12:44 46.10589 16.20349 38061 ft 464 kts 77°
2026-04-14 12:45 46.13019 16.33792 38075 ft 464 kts 77°
2026-04-14 12:45 46.14634 16.42805 38077 ft 464 kts 77°
2026-04-14 12:46 46.16238 16.51824 38063 ft 465 kts 77°
2026-04-14 12:46 46.17835 16.60864 37871 ft 464 kts 77°
2026-04-14 12:47 46.18628 16.65370 37595 ft 461 kts 77°
2026-04-14 12:47 46.19416 16.69844 37326 ft 459 kts 77°
2026-04-14 12:47 46.20201 16.74305 37077 ft 458 kts 77°
2026-04-14 12:47 46.20981 16.78753 37046 ft 457 kts 77°
2026-04-14 12:48 46.22535 16.87671 37054 ft 458 kts 77°
2026-04-14 12:48 46.24884 16.96201 37054 ft 460 kts 59°
2026-04-14 12:49 46.28953 17.03291 37049 ft 460 kts 44°
2026-04-14 12:49 46.33545 17.09824 37056 ft 465 kts 45°
2026-04-14 12:50 46.40388 17.19689 36231 ft 460 kts 45°
2026-04-14 12:50 46.42653 17.22958 35701 ft 459 kts 45°
2026-04-14 12:51 46.44917 17.26220 35150 ft 459 kts 45°
2026-04-14 12:51 46.47178 17.29474 34690 ft 456 kts 45°
2026-04-14 12:51 46.49418 17.32700 34289 ft 451 kts 45°
2026-04-14 12:51 46.51631 17.35891 33856 ft 447 kts 45°
2026-04-14 12:52 46.53831 17.39071 33375 ft 443 kts 45°
2026-04-14 12:52 46.56000 17.42217 32897 ft 440 kts 45°
2026-04-14 12:52 46.58157 17.45340 32407 ft 436 kts 45°
2026-04-14 12:52 46.60295 17.48438 31933 ft 432 kts 45°
2026-04-14 12:53 46.62413 17.51512 31465 ft 428 kts 45°
2026-04-14 12:53 46.64512 17.54564 30996 ft 425 kts 45°
2026-04-14 12:53 46.66587 17.57588 30561 ft 421 kts 45°
2026-04-14 12:53 46.68648 17.60601 30137 ft 418 kts 45°
2026-04-14 12:54 46.70690 17.63593 29601 ft 415 kts 45°
2026-04-14 12:54 46.72718 17.66563 29091 ft 412 kts 45°
2026-04-14 12:54 46.74731 17.69510 28592 ft 409 kts 45°
2026-04-14 12:54 46.76730 17.72439 28113 ft 406 kts 45°
2026-04-14 12:55 46.78714 17.75348 27654 ft 403 kts 45°
2026-04-14 12:55 46.80686 17.78239 27239 ft 401 kts 45°
2026-04-14 12:55 46.82648 17.81121 26837 ft 399 kts 45°
2026-04-14 12:55 46.84604 17.84000 26435 ft 398 kts 45°
2026-04-14 12:56 46.86536 17.86854 25903 ft 393 kts 45°
2026-04-14 12:56 46.88450 17.89683 25205 ft 390 kts 45°
2026-04-14 12:56 46.90349 17.92489 24533 ft 386 kts 45°
2026-04-14 12:56 46.92228 17.95267 23897 ft 382 kts 45°
2026-04-14 12:57 46.94087 17.98018 23160 ft 379 kts 45°
2026-04-14 12:57 46.95930 18.00749 22427 ft 375 kts 45°
2026-04-14 12:57 46.97753 18.03452 21689 ft 371 kts 45°
2026-04-14 12:57 46.99556 18.06125 20997 ft 367 kts 46°
2026-04-14 12:58 47.01341 18.08776 20270 ft 364 kts 45°
2026-04-14 12:58 47.03119 18.11423 19606 ft 364 kts 45°
2026-04-14 12:58 47.04861 18.14016 19206 ft 360 kts 45°
2026-04-14 12:58 47.06634 18.16658 18759 ft 359 kts 45°
2026-04-14 12:59 47.08375 18.19257 18380 ft 355 kts 46°
2026-04-14 12:59 47.10101 18.21837 17874 ft 354 kts 46°
2026-04-14 12:59 47.11823 18.24412 17396 ft 351 kts 46°
2026-04-14 12:59 47.13523 18.26958 16982 ft 348 kts 46°
2026-04-14 13:00 47.15188 18.29453 16506 ft 347 kts 46°
2026-04-14 13:00 47.16867 18.31970 16111 ft 343 kts 46°
2026-04-14 13:00 47.18529 18.34465 15664 ft 340 kts 46°
2026-04-14 13:00 47.20181 18.36947 15238 ft 339 kts 46°
2026-04-14 13:01 47.21824 18.39421 14856 ft 335 kts 47°
2026-04-14 13:01 47.23451 18.41870 14425 ft 334 kts 47°
2026-04-14 13:01 47.25074 18.44309 14022 ft 332 kts 47°
2026-04-14 13:01 47.26684 18.46723 13599 ft 330 kts 48°
2026-04-14 13:02 47.28283 18.49132 13129 ft 328 kts 47°
2026-04-14 13:02 47.29868 18.51528 12735 ft 325 kts 48°
2026-04-14 13:02 47.31438 18.53904 12312 ft 323 kts 49°
2026-04-14 13:02 47.33001 18.56268 11889 ft 320 kts 48°
2026-04-14 13:03 47.34548 18.58609 11509 ft 317 kts 48°
2026-04-14 13:03 47.36080 18.60934 11106 ft 315 kts 48°
2026-04-14 13:03 47.37598 18.63244 10720 ft 313 kts 48°
2026-04-14 13:03 47.39110 18.65546 10343 ft 311 kts 48°
2026-04-14 13:04 47.40590 18.67794 10179 ft 301 kts 48°
2026-04-14 13:04 47.42033 18.69988 9882 ft 296 kts 48°
2026-04-14 13:04 47.43462 18.72165 9509 ft 294 kts 48°
2026-04-14 13:04 47.44882 18.74330 9139 ft 292 kts 48°
2026-04-14 13:05 47.46288 18.76480 8758 ft 289 kts 48°
2026-04-14 13:05 47.47678 18.78605 8186 ft 286 kts 48°
2026-04-14 13:05 47.49057 18.80710 7630 ft 285 kts 47°
2026-04-14 13:05 47.50430 18.82803 7104 ft 282 kts 48°
2026-04-14 13:06 47.51769 18.84848 6646 ft 276 kts 47°
2026-04-14 13:06 47.53110 18.86900 6094 ft 274 kts 49°
2026-04-14 13:06 47.54401 18.88868 5859 ft 261 kts 47°
2026-04-14 13:06 47.55697 18.90703 5440 ft 258 kts 45°
2026-04-14 13:07 47.56949 18.92618 4929 ft 261 kts 59°
2026-04-14 13:07 47.57732 18.94950 4703 ft 247 kts 77°
2026-04-14 13:07 47.57995 18.97361 4548 ft 232 kts 93°
2026-04-14 13:07 47.57804 18.99662 4333 ft 216 kts 109°
2026-04-14 13:08 47.57247 19.01662 4102 ft 207 kts 122°
2026-04-14 13:08 47.56400 19.03334 3850 ft 201 kts 133°
2026-04-14 13:08 47.55477 19.04836 3589 ft 200 kts 133°
2026-04-14 13:08 47.54555 19.06338 3320 ft 194 kts 131°
2026-04-14 13:09 47.53636 19.07836 3070 ft 193 kts 132°
2026-04-14 13:09 47.52767 19.09251 2828 ft 183 kts 132°
2026-04-14 13:09 47.51929 19.10615 2571 ft 172 kts 133°
2026-04-14 13:09 47.51150 19.11882 2336 ft 164 kts 131°
2026-04-14 13:10 47.50420 19.13067 2127 ft 147 kts 131°
2026-04-14 13:10 47.49747 19.14160 1939 ft 140 kts 131°
2026-04-14 13:10 47.49105 19.15203 1762 ft 136 kts 130°
2026-04-14 13:10 47.48479 19.16220 1572 ft 133 kts 131°
2026-04-14 13:11 47.47872 19.17221 1420 ft 134 kts 131°
2026-04-14 13:11 47.47249 19.18222 1168 ft 132 kts 132°
2026-04-14 13:11 47.46633 19.19218 1013 ft 133 kts 131°
2026-04-14 13:11 47.46040 19.20175 835 ft 132 kts 130°
2026-04-14 13:12 47.45421 19.21184 648 ft 133 kts 129°
2026-04-14 13:12 47.44806 19.22183 483 ft 131 kts 128°
2026-04-14 13:12 47.44251 19.23085 453 ft 102 kts 131°
2026-04-14 13:12 47.43970 19.23539 455 ft 78 kts 133°
2026-04-14 13:13 47.43734 19.23952 454 ft 27 kts 118°
2026-04-14 13:13 47.43686 19.24166 455 ft 18 kts 103°
2026-04-14 13:13 47.43656 19.24349 455 ft 19 kts 108°
2026-04-14 13:13 47.43597 19.24528 455 ft 20 kts 123°
2026-04-14 13:14 47.43503 19.24693 457 ft 22 kts 133°
2026-04-14 13:14 47.43400 19.24860 457 ft 22 kts 132°
2026-04-14 13:14 47.43298 19.25025 457 ft 21 kts 132°
2026-04-14 13:14 47.43232 19.25182 457 ft 16 kts 90°
2026-04-14 13:15 47.43290 19.25314 457 ft 17 kts 43°
2026-04-14 13:15 47.43376 19.25431 457 ft 17 kts 42°
2026-04-14 13:15 47.43466 19.25553 457 ft 18 kts 42°
2026-04-14 13:15 47.43549 19.25673 456 ft 13 kts 65°
2026-04-14 13:16 47.43501 19.25782 457 ft 12 kts 132°
2026-04-14 13:16 47.43513 19.25856 456 ft 7 kts 38°
2026-04-14 13:16 47.43546 19.25829 457 ft 3 kts 312°
2026-04-14 13:16 47.43551 19.25820 457 ft 0 kts 312°